Track COSMOS 1136 now! 10-day predictions COSMOS 1136 is classified as:
1 11544U 79084G 21110.45827730 -.00000007 00000-0 60050-4 0 9997 2 11544 74.0211 126.2415 0016381 281.1662 149.2555 12.45274092889639